Year,Month,Day,Hour,Minute,Value (Times are PST for temperature in C)
2008,07,18,00,00,16.20
2008,07,18,00,01,16.20
2008,07,18,00,02,16.20
2008,07,18,00,03,16.20
2008,07,18,00,04,16.20
2008,07,18,00,05,16.20
2008,07,18,00,06,16.20
2008,07,18,00,07,16.20
2008,07,18,00,08,16.20
2008,07,18,00,09,16.20
2008,07,18,00,10,16.10
2008,07,18,00,11,16.10
2008,07,18,00,12,16.10
2008,07,18,00,13,16.10
2008,07,18,00,14,16.10
2008,07,18,00,15,16.10
2008,07,18,00,16,16.00
2008,07,18,00,17,16.00
2008,07,18,00,18,16.00
2008,07,18,00,19,16.00
2008,07,18,00,20,15.90
2008,07,18,00,21,15.90
2008,07,18,00,22,15.90
2008,07,18,00,23,15.90
2008,07,18,00,24,15.90
2008,07,18,00,25,15.90
2008,07,18,00,26,15.90
2008,07,18,00,27,15.90
2008,07,18,00,28,15.90
2008,07,18,00,29,15.90
2008,07,18,00,30,15.90
2008,07,18,00,31,15.90
2008,07,18,00,32,15.90
2008,07,18,00,33,15.80
2008,07,18,00,34,15.90
2008,07,18,00,35,15.80
2008,07,18,00,36,15.80
2008,07,18,00,37,15.80
2008,07,18,00,38,15.80
2008,07,18,00,39,15.80
2008,07,18,00,40,15.80
2008,07,18,00,41,15.80
2008,07,18,00,42,15.80
2008,07,18,00,43,15.80
2008,07,18,00,44,15.80
2008,07,18,00,45,15.80
2008,07,18,00,46,15.70
2008,07,18,00,47,15.70
2008,07,18,00,48,15.70
2008,07,18,00,49,15.70
2008,07,18,00,50,15.70
2008,07,18,00,51,15.70
2008,07,18,00,52,15.70
2008,07,18,00,53,15.70
2008,07,18,00,54,15.70
2008,07,18,00,55,15.70
2008,07,18,00,56,15.70
2008,07,18,00,57,15.70
2008,07,18,00,58,15.70
2008,07,18,00,59,15.70
2008,07,18,01,00,15.70
2008,07,18,01,01,15.60
2008,07,18,01,02,15.60
2008,07,18,01,03,15.60
2008,07,18,01,04,15.60
2008,07,18,01,05,15.60
2008,07,18,01,06,15.60
2008,07,18,01,07,15.60
2008,07,18,01,08,15.70
2008,07,18,01,09,15.70
2008,07,18,01,10,15.70
2008,07,18,01,11,15.70
2008,07,18,01,12,15.70
2008,07,18,01,13,15.70
2008,07,18,01,14,15.70
2008,07,18,01,15,15.70
2008,07,18,01,16,15.70
2008,07,18,01,17,15.60
2008,07,18,01,18,15.60
2008,07,18,01,19,15.60
2008,07,18,01,20,15.60
2008,07,18,01,21,15.60
2008,07,18,01,22,15.60
2008,07,18,01,23,15.50
2008,07,18,01,24,15.50
2008,07,18,01,25,15.50
2008,07,18,01,26,15.50
2008,07,18,01,27,15.50
2008,07,18,01,28,15.40
2008,07,18,01,29,15.40
2008,07,18,01,30,15.40
2008,07,18,01,31,15.40
2008,07,18,01,32,15.40
2008,07,18,01,33,15.30
2008,07,18,01,34,15.30
2008,07,18,01,35,15.30
2008,07,18,01,36,15.30
2008,07,18,01,37,15.30
2008,07,18,01,38,15.30
2008,07,18,01,39,15.20
2008,07,18,01,40,15.20
2008,07,18,01,41,15.20
2008,07,18,01,42,15.20
2008,07,18,01,43,15.20
2008,07,18,01,44,15.10
2008,07,18,01,45,15.10
2008,07,18,01,46,15.00
2008,07,18,01,47,15.00
2008,07,18,01,48,15.00
2008,07,18,01,49,15.00
2008,07,18,01,50,15.00
2008,07,18,01,51,15.00
2008,07,18,01,52,15.00
2008,07,18,01,53,14.90
2008,07,18,01,54,14.90
2008,07,18,01,55,14.80
2008,07,18,01,56,14.80
2008,07,18,01,57,14.80
2008,07,18,01,58,14.70
2008,07,18,01,59,14.70
2008,07,18,02,00,14.60
2008,07,18,02,01,14.60
2008,07,18,02,02,14.60
2008,07,18,02,03,14.60
2008,07,18,02,04,14.50
2008,07,18,02,05,14.50
2008,07,18,02,06,14.50
2008,07,18,02,07,14.50
2008,07,18,02,08,14.50
2008,07,18,02,09,14.40
2008,07,18,02,10,14.40
2008,07,18,02,11,14.40
2008,07,18,02,12,14.30
2008,07,18,02,13,14.40
2008,07,18,02,14,14.40
2008,07,18,02,15,14.40
2008,07,18,02,16,14.30
2008,07,18,02,17,14.30
2008,07,18,02,18,14.30
2008,07,18,02,19,14.20
2008,07,18,02,20,14.10
2008,07,18,02,21,14.10
2008,07,18,02,22,14.00
2008,07,18,02,23,14.00
2008,07,18,02,24,13.90
2008,07,18,02,25,13.90
2008,07,18,02,26,13.90
2008,07,18,02,27,13.90
2008,07,18,02,28,13.90
2008,07,18,02,29,14.00
2008,07,18,02,30,14.00
2008,07,18,02,31,14.10
2008,07,18,02,32,14.10
2008,07,18,02,33,14.10
2008,07,18,02,34,14.20
2008,07,18,02,35,14.20
2008,07,18,02,36,14.20
2008,07,18,02,37,14.20
2008,07,18,02,38,14.20
2008,07,18,02,39,14.10
2008,07,18,02,40,14.20
2008,07,18,02,41,14.20
2008,07,18,02,42,14.20
2008,07,18,02,43,14.30
2008,07,18,02,44,14.40
2008,07,18,02,45,14.40
2008,07,18,02,46,14.50
2008,07,18,02,47,14.50
2008,07,18,02,48,14.60
2008,07,18,02,49,14.60
2008,07,18,02,50,14.60
2008,07,18,02,51,14.60
2008,07,18,02,52,14.60
2008,07,18,02,53,14.60
2008,07,18,02,54,14.60
2008,07,18,02,55,14.60
2008,07,18,02,56,14.60
2008,07,18,02,57,14.60
2008,07,18,02,58,14.60
2008,07,18,02,59,14.60
2008,07,18,03,00,14.60
2008,07,18,03,01,14.60
2008,07,18,03,02,14.60
2008,07,18,03,03,14.60
2008,07,18,03,04,14.60
2008,07,18,03,05,14.70
2008,07,18,03,06,14.70
2008,07,18,03,07,14.70
2008,07,18,03,08,14.70
2008,07,18,03,09,14.70
2008,07,18,03,10,14.70
2008,07,18,03,11,14.70
2008,07,18,03,12,14.70
2008,07,18,03,13,14.70
2008,07,18,03,14,14.70
2008,07,18,03,15,14.70
2008,07,18,03,16,14.70
2008,07,18,03,17,14.70
2008,07,18,03,18,14.70
2008,07,18,03,19,14.70
2008,07,18,03,20,14.70
2008,07,18,03,21,14.70
2008,07,18,03,22,14.70
2008,07,18,03,23,14.70
2008,07,18,03,24,14.70
2008,07,18,03,25,14.70
2008,07,18,03,26,14.70
2008,07,18,03,27,14.70
2008,07,18,03,28,14.70
2008,07,18,03,29,14.70
2008,07,18,03,30,14.70
2008,07,18,03,31,14.70
2008,07,18,03,32,14.70
2008,07,18,03,33,14.70
2008,07,18,03,34,14.70
2008,07,18,03,35,14.70
2008,07,18,03,36,14.70
2008,07,18,03,37,14.70
2008,07,18,03,38,14.70
2008,07,18,03,39,14.60
2008,07,18,03,40,14.60
2008,07,18,03,41,14.60
2008,07,18,03,42,14.60
2008,07,18,03,43,14.60
2008,07,18,03,44,14.60
2008,07,18,03,45,14.60
2008,07,18,03,46,14.60
2008,07,18,03,47,14.60
2008,07,18,03,48,14.60
2008,07,18,03,49,14.60
2008,07,18,03,50,14.60
2008,07,18,03,51,14.50
2008,07,18,03,52,14.50
2008,07,18,03,53,14.50
2008,07,18,03,54,14.50
2008,07,18,03,55,14.50
2008,07,18,03,56,14.50
2008,07,18,03,57,14.50
2008,07,18,03,58,14.50
2008,07,18,03,59,14.50
2008,07,18,04,00,14.50
2008,07,18,04,01,14.40
2008,07,18,04,02,14.40
2008,07,18,04,03,14.40
2008,07,18,04,04,14.40
2008,07,18,04,05,14.40
2008,07,18,04,06,14.40
2008,07,18,04,07,14.40
2008,07,18,04,08,14.40
2008,07,18,04,09,14.40
2008,07,18,04,10,14.40
2008,07,18,04,11,14.40
2008,07,18,04,12,14.40
2008,07,18,04,13,14.30
2008,07,18,04,14,14.30
2008,07,18,04,15,14.30
2008,07,18,04,16,14.30
2008,07,18,04,17,14.30
2008,07,18,04,18,14.30
2008,07,18,04,19,14.30
2008,07,18,04,20,14.20
2008,07,18,04,21,14.20
2008,07,18,04,22,14.20
2008,07,18,04,23,14.20
2008,07,18,04,24,14.20
2008,07,18,04,25,14.10
2008,07,18,04,26,14.10
2008,07,18,04,27,14.10
2008,07,18,04,28,14.10
2008,07,18,04,29,14.10
2008,07,18,04,30,14.10
2008,07,18,04,31,14.00
2008,07,18,04,32,14.00
2008,07,18,04,33,14.00
2008,07,18,04,34,14.00
2008,07,18,04,35,13.90
2008,07,18,04,36,13.90
2008,07,18,04,37,13.90
2008,07,18,04,38,13.90
2008,07,18,04,39,13.80
2008,07,18,04,40,13.80
2008,07,18,04,41,13.80
2008,07,18,04,42,13.80
2008,07,18,04,43,13.80
2008,07,18,04,44,13.80
2008,07,18,04,45,13.80
2008,07,18,04,46,13.80
2008,07,18,04,47,13.80
2008,07,18,04,48,13.80
2008,07,18,04,49,13.80
2008,07,18,04,50,13.80
2008,07,18,04,51,13.80
2008,07,18,04,52,13.80
2008,07,18,04,53,13.80
2008,07,18,04,54,13.70
2008,07,18,04,55,13.70
2008,07,18,04,56,13.60
2008,07,18,04,57,13.60
2008,07,18,04,58,13.40
2008,07,18,04,59,13.40
2008,07,18,05,00,13.30
2008,07,18,05,01,13.10
2008,07,18,05,02,13.00
2008,07,18,05,03,12.90
2008,07,18,05,04,12.80
2008,07,18,05,05,12.70
2008,07,18,05,06,12.60
2008,07,18,05,07,12.40
2008,07,18,05,08,12.30
2008,07,18,05,09,12.20
2008,07,18,05,10,12.10
2008,07,18,05,11,12.00
2008,07,18,05,12,12.00
2008,07,18,05,13,11.90
2008,07,18,05,14,11.90
2008,07,18,05,15,11.90
2008,07,18,05,16,11.80
2008,07,18,05,17,11.80
2008,07,18,05,18,11.80
2008,07,18,05,19,11.80
2008,07,18,05,20,11.70
2008,07,18,05,21,11.70
2008,07,18,05,22,11.70
2008,07,18,05,23,11.70
2008,07,18,05,24,11.70
2008,07,18,05,25,11.80
2008,07,18,05,26,11.80
2008,07,18,05,27,11.80
2008,07,18,05,28,11.80
2008,07,18,05,29,11.90
2008,07,18,05,30,11.90
2008,07,18,05,31,11.90
2008,07,18,05,32,11.90
2008,07,18,05,33,12.00
2008,07,18,05,34,12.00
2008,07,18,05,35,12.10
2008,07,18,05,36,12.10
2008,07,18,05,37,12.20
2008,07,18,05,38,12.20
2008,07,18,05,39,12.20
2008,07,18,05,40,12.30
2008,07,18,05,41,12.30
2008,07,18,05,42,12.30
2008,07,18,05,43,12.30
2008,07,18,05,44,12.30
2008,07,18,05,45,12.30
2008,07,18,05,46,12.30
2008,07,18,05,47,12.30
2008,07,18,05,48,12.30
2008,07,18,05,49,12.20
2008,07,18,05,50,12.10
2008,07,18,05,51,12.00
2008,07,18,05,52,12.00
2008,07,18,05,53,12.00
2008,07,18,05,54,11.90
2008,07,18,05,55,11.90
2008,07,18,05,56,11.80
2008,07,18,05,57,11.80
2008,07,18,05,58,11.80
2008,07,18,05,59,11.80
2008,07,18,06,00,11.80
2008,07,18,06,01,11.90
2008,07,18,06,02,11.90
2008,07,18,06,03,11.80
2008,07,18,06,04,11.80
2008,07,18,06,05,11.80
2008,07,18,06,06,11.90
2008,07,18,06,07,11.90
2008,07,18,06,08,11.90
2008,07,18,06,09,12.00
2008,07,18,06,10,12.00
2008,07,18,06,11,12.00
2008,07,18,06,12,12.10
2008,07,18,06,13,12.10
2008,07,18,06,14,12.20
2008,07,18,06,15,12.10
2008,07,18,06,16,12.20
2008,07,18,06,17,12.20
2008,07,18,06,18,12.20
2008,07,18,06,19,12.30
2008,07,18,06,20,12.30
2008,07,18,06,21,12.30
2008,07,18,06,22,12.30
2008,07,18,06,23,12.40
2008,07,18,06,24,12.40
2008,07,18,06,25,12.40
2008,07,18,06,26,12.40
2008,07,18,06,27,12.50
2008,07,18,06,28,12.60
2008,07,18,06,29,12.70
2008,07,18,06,30,12.70
2008,07,18,06,31,12.70
2008,07,18,06,32,12.80
2008,07,18,06,33,12.80
2008,07,18,06,34,12.80
2008,07,18,06,35,12.90
2008,07,18,06,36,12.90
2008,07,18,06,37,13.00
2008,07,18,06,38,13.00
2008,07,18,06,39,13.10
2008,07,18,06,40,13.10
2008,07,18,06,41,13.10
2008,07,18,06,42,13.20
2008,07,18,06,43,13.20
2008,07,18,06,44,13.30
2008,07,18,06,45,13.30
2008,07,18,06,46,13.30
2008,07,18,06,47,13.30
2008,07,18,06,48,13.30
2008,07,18,06,49,13.40
2008,07,18,06,50,13.40
2008,07,18,06,51,13.40
2008,07,18,06,52,13.40
2008,07,18,06,53,13.40
2008,07,18,06,54,13.50
2008,07,18,06,55,13.50
2008,07,18,06,56,13.60
2008,07,18,06,57,13.60
2008,07,18,06,58,13.60
2008,07,18,06,59,13.60
2008,07,18,07,00,13.70
2008,07,18,07,01,13.70
2008,07,18,07,02,13.80
2008,07,18,07,03,13.80
2008,07,18,07,04,13.80
2008,07,18,07,05,13.90
2008,07,18,07,06,13.90
2008,07,18,07,07,14.00
2008,07,18,07,08,14.10
2008,07,18,07,09,14.10
2008,07,18,07,10,14.10
2008,07,18,07,11,14.10
2008,07,18,07,12,14.20
2008,07,18,07,13,14.20
2008,07,18,07,14,14.20
2008,07,18,07,15,14.20
2008,07,18,07,16,14.30
2008,07,18,07,17,14.30
2008,07,18,07,18,14.30
2008,07,18,07,19,14.30
2008,07,18,07,20,14.40
2008,07,18,07,21,14.40
2008,07,18,07,22,14.50
2008,07,18,07,23,14.50
2008,07,18,07,24,14.40
2008,07,18,07,25,14.40
2008,07,18,07,26,14.40
2008,07,18,07,27,14.40
2008,07,18,07,28,14.50
2008,07,18,07,29,14.50
2008,07,18,07,30,14.60
2008,07,18,07,31,14.60
2008,07,18,07,32,14.70
2008,07,18,07,33,14.70
2008,07,18,07,34,14.70
2008,07,18,07,35,14.70
2008,07,18,07,36,14.70
2008,07,18,07,37,14.70
2008,07,18,07,38,14.80
2008,07,18,07,39,14.90
2008,07,18,07,40,14.90
2008,07,18,07,41,15.00
2008,07,18,07,42,15.00
2008,07,18,07,43,15.00
2008,07,18,07,44,15.00
2008,07,18,07,45,15.00
2008,07,18,07,46,15.00
2008,07,18,07,47,15.10
2008,07,18,07,48,15.10
2008,07,18,07,49,15.20
2008,07,18,07,50,15.20
2008,07,18,07,51,15.20
2008,07,18,07,52,15.30
2008,07,18,07,53,15.30
2008,07,18,07,54,15.30
2008,07,18,07,55,15.40
2008,07,18,07,56,15.40
2008,07,18,07,57,15.40
2008,07,18,07,58,15.40
2008,07,18,07,59,15.40
2008,07,18,08,00,15.40
2008,07,18,08,01,15.40
2008,07,18,08,02,15.30
2008,07,18,08,03,15.30
2008,07,18,08,04,15.30
2008,07,18,08,05,15.30
2008,07,18,08,06,15.30
2008,07,18,08,07,15.30
2008,07,18,08,08,15.30
2008,07,18,08,09,15.30
2008,07,18,08,10,15.30
2008,07,18,08,11,15.40
2008,07,18,08,12,15.40
2008,07,18,08,13,15.30
2008,07,18,08,14,15.30
2008,07,18,08,15,15.30
2008,07,18,08,16,15.30
2008,07,18,08,17,15.30
2008,07,18,08,18,15.30
2008,07,18,08,19,15.30
2008,07,18,08,20,15.30
2008,07,18,08,21,15.40
2008,07,18,08,22,15.40
2008,07,18,08,23,15.40
2008,07,18,08,24,15.40
2008,07,18,08,25,15.40
2008,07,18,08,26,15.40
2008,07,18,08,27,15.40
2008,07,18,08,28,15.30
2008,07,18,08,29,15.30
2008,07,18,08,30,15.30
2008,07,18,08,31,15.30
2008,07,18,08,32,15.30
2008,07,18,08,33,15.40
2008,07,18,08,34,15.40
2008,07,18,08,35,15.50
2008,07,18,08,36,15.50
2008,07,18,08,37,15.60
2008,07,18,08,38,15.60
2008,07,18,08,39,15.70
2008,07,18,08,40,15.70
2008,07,18,08,41,15.80
2008,07,18,08,42,15.80
2008,07,18,08,43,15.70
2008,07,18,08,44,15.70
2008,07,18,08,45,15.80
2008,07,18,08,46,15.80
2008,07,18,08,47,15.80
2008,07,18,08,48,15.70
2008,07,18,08,49,15.70
2008,07,18,08,50,15.70
2008,07,18,08,51,15.60
2008,07,18,08,52,15.60
2008,07,18,08,53,15.60
2008,07,18,08,54,15.60
2008,07,18,08,55,15.60
2008,07,18,08,56,15.70
2008,07,18,08,57,15.70
2008,07,18,08,58,15.80
2008,07,18,08,59,15.90
2008,07,18,09,00,16.00
2008,07,18,09,01,16.00
2008,07,18,09,02,16.10
2008,07,18,09,03,16.20
2008,07,18,09,04,16.30
2008,07,18,09,05,16.30
2008,07,18,09,06,16.30
2008,07,18,09,07,16.30
2008,07,18,09,08,16.30
2008,07,18,09,09,16.30
2008,07,18,09,10,16.30
2008,07,18,09,11,16.40
2008,07,18,09,12,16.40
2008,07,18,09,13,16.40
2008,07,18,09,14,16.40
2008,07,18,09,15,16.40
2008,07,18,09,16,16.30
2008,07,18,09,17,16.30
2008,07,18,09,18,16.30
2008,07,18,09,19,16.40
2008,07,18,09,20,16.40
2008,07,18,09,21,16.40
2008,07,18,09,22,16.50
2008,07,18,09,23,16.40
2008,07,18,09,24,16.30
2008,07,18,09,25,16.20
2008,07,18,09,26,16.20
2008,07,18,09,27,16.20
2008,07,18,09,28,16.20
2008,07,18,09,29,16.20
2008,07,18,09,30,16.10
2008,07,18,09,31,16.10
2008,07,18,09,32,16.20
2008,07,18,09,33,16.20
2008,07,18,09,34,16.10
2008,07,18,09,35,16.00
2008,07,18,09,36,15.90
2008,07,18,09,37,15.80
2008,07,18,09,38,15.80
2008,07,18,09,39,15.70
2008,07,18,09,40,15.70
2008,07,18,09,41,15.70
2008,07,18,09,42,15.80
2008,07,18,09,43,15.80
2008,07,18,09,44,15.80
2008,07,18,09,45,15.70
2008,07,18,09,46,15.70
2008,07,18,09,47,15.80
2008,07,18,09,48,15.80
2008,07,18,09,49,15.80
2008,07,18,09,50,15.80
2008,07,18,09,51,15.70
2008,07,18,09,52,15.70
2008,07,18,09,53,15.60
2008,07,18,09,54,15.50
2008,07,18,09,55,15.40
2008,07,18,09,56,15.50
2008,07,18,09,57,15.40
2008,07,18,09,58,15.40
2008,07,18,09,59,15.40
2008,07,18,10,00,15.50
2008,07,18,10,01,15.50
2008,07,18,10,02,15.50
2008,07,18,10,03,15.50
2008,07,18,10,04,15.50
2008,07,18,10,05,15.50
2008,07,18,10,06,15.60
2008,07,18,10,07,15.60
2008,07,18,10,08,15.70
2008,07,18,10,09,15.70
2008,07,18,10,10,15.70
2008,07,18,10,11,15.60
2008,07,18,10,12,15.60
2008,07,18,10,13,15.50
2008,07,18,10,14,15.50
2008,07,18,10,15,15.50
2008,07,18,10,16,15.60
2008,07,18,10,17,15.60
2008,07,18,10,18,15.70
2008,07,18,10,19,15.70
2008,07,18,10,20,15.70
2008,07,18,10,21,15.70
2008,07,18,10,22,15.70
2008,07,18,10,23,15.70
2008,07,18,10,24,15.70
2008,07,18,10,25,15.80
2008,07,18,10,26,15.80
2008,07,18,10,27,15.70
2008,07,18,10,28,15.80
2008,07,18,10,29,15.80
2008,07,18,10,30,15.90
2008,07,18,10,31,15.90
2008,07,18,10,32,15.90
2008,07,18,10,33,16.00
2008,07,18,10,34,16.00
2008,07,18,10,35,16.00
2008,07,18,10,36,16.00
2008,07,18,10,37,15.90
2008,07,18,10,38,16.00
2008,07,18,10,39,16.00
2008,07,18,10,40,16.00
2008,07,18,10,41,15.90
2008,07,18,10,42,15.90
2008,07,18,10,43,15.80
2008,07,18,10,44,15.80
2008,07,18,10,45,15.80
2008,07,18,10,46,15.70
2008,07,18,10,47,15.60
2008,07,18,10,48,15.70
2008,07,18,10,49,15.70
2008,07,18,10,50,15.70
2008,07,18,10,51,15.70
2008,07,18,10,52,15.70
2008,07,18,10,53,15.70
2008,07,18,10,54,15.90
2008,07,18,10,55,16.00
2008,07,18,10,56,16.00
2008,07,18,10,57,16.00
2008,07,18,10,58,16.00
2008,07,18,10,59,16.00
2008,07,18,11,00,16.00
2008,07,18,11,01,15.90
2008,07,18,11,02,15.90
2008,07,18,11,03,15.90
2008,07,18,11,04,15.80
2008,07,18,11,05,15.90
2008,07,18,11,06,15.90
2008,07,18,11,07,15.90
2008,07,18,11,08,15.90
2008,07,18,11,09,15.90
2008,07,18,11,10,15.90
2008,07,18,11,11,15.90
2008,07,18,11,12,15.90
2008,07,18,11,13,16.00
2008,07,18,11,14,16.00
2008,07,18,11,15,16.00
2008,07,18,11,16,16.00
2008,07,18,11,17,16.00
2008,07,18,11,18,16.00
2008,07,18,11,19,15.90
2008,07,18,11,20,15.90
2008,07,18,11,21,15.90
2008,07,18,11,22,15.90
2008,07,18,11,23,15.80
2008,07,18,11,24,15.80
2008,07,18,11,25,15.90
2008,07,18,11,26,15.90
2008,07,18,11,27,15.90
2008,07,18,11,28,15.90
2008,07,18,11,29,16.00
2008,07,18,11,30,16.00
2008,07,18,11,31,15.90
2008,07,18,11,32,15.80
2008,07,18,11,33,15.80
2008,07,18,11,34,15.80
2008,07,18,11,35,15.70
2008,07,18,11,36,15.80
2008,07,18,11,37,15.70
2008,07,18,11,38,15.80
2008,07,18,11,39,15.80
2008,07,18,11,40,15.80
2008,07,18,11,41,15.80
2008,07,18,11,42,15.80
2008,07,18,11,43,15.80
2008,07,18,11,44,15.80
2008,07,18,11,45,15.80
2008,07,18,11,46,15.80
2008,07,18,11,47,15.80
2008,07,18,11,48,15.80
2008,07,18,11,49,15.80
2008,07,18,11,50,15.80
2008,07,18,11,51,15.80
2008,07,18,11,52,15.80
2008,07,18,11,53,15.80
2008,07,18,11,54,15.80
2008,07,18,11,55,15.80
2008,07,18,11,56,15.70
2008,07,18,11,57,15.70
2008,07,18,11,58,15.70
2008,07,18,11,59,15.70
2008,07,18,12,00,15.70
2008,07,18,12,01,15.70
2008,07,18,12,02,15.70
2008,07,18,12,03,15.80
2008,07,18,12,04,15.80
2008,07,18,12,05,15.90
2008,07,18,12,06,15.90
2008,07,18,12,07,16.00
2008,07,18,12,08,16.10
2008,07,18,12,09,16.20
2008,07,18,12,10,16.20
2008,07,18,12,11,16.20
2008,07,18,12,12,16.20
2008,07,18,12,13,16.10
2008,07,18,12,14,16.10
2008,07,18,12,15,16.10
2008,07,18,12,16,16.00
2008,07,18,12,17,16.00
2008,07,18,12,18,15.90
2008,07,18,12,19,15.90
2008,07,18,12,20,15.90
2008,07,18,12,21,16.10
2008,07,18,12,22,16.20
2008,07,18,12,23,16.20
2008,07,18,12,24,16.30
2008,07,18,12,25,16.20
2008,07,18,12,26,16.10
2008,07,18,12,27,16.10
2008,07,18,12,28,16.10
2008,07,18,12,29,16.10
2008,07,18,12,30,16.10
2008,07,18,12,31,16.10
2008,07,18,12,32,16.10
2008,07,18,12,33,16.10
2008,07,18,12,34,16.10
2008,07,18,12,35,16.20
2008,07,18,12,36,16.20
2008,07,18,12,37,16.20
2008,07,18,12,38,16.20
2008,07,18,12,39,16.20
2008,07,18,12,40,16.20
2008,07,18,12,41,16.20
2008,07,18,12,42,16.20
2008,07,18,12,43,16.20
2008,07,18,12,44,16.10
2008,07,18,12,45,16.10
2008,07,18,12,46,16.10
2008,07,18,12,47,16.10
2008,07,18,12,48,16.10
2008,07,18,12,49,16.20
2008,07,18,12,50,16.30
2008,07,18,12,51,16.40
2008,07,18,12,52,16.40
2008,07,18,12,53,16.40
2008,07,18,12,54,16.40
2008,07,18,12,55,16.40
2008,07,18,12,56,16.40
2008,07,18,12,57,16.40
2008,07,18,12,58,16.40
2008,07,18,12,59,16.40
2008,07,18,13,00,16.50
2008,07,18,13,01,16.60
2008,07,18,13,02,16.70
2008,07,18,13,03,16.70
2008,07,18,13,04,16.70
2008,07,18,13,05,16.70
2008,07,18,13,06,16.60
2008,07,18,13,07,16.60
2008,07,18,13,08,16.60
2008,07,18,13,09,16.50
2008,07,18,13,10,16.60
2008,07,18,13,11,16.60
2008,07,18,13,12,16.60
2008,07,18,13,13,16.70
2008,07,18,13,14,16.80
2008,07,18,13,15,16.90
2008,07,18,13,16,16.90
2008,07,18,13,17,16.90
2008,07,18,13,18,16.80
2008,07,18,13,19,16.80
2008,07,18,13,20,16.80
2008,07,18,13,21,16.80
2008,07,18,13,22,16.90
2008,07,18,13,23,16.90
2008,07,18,13,24,16.90
2008,07,18,13,25,16.90
2008,07,18,13,26,17.00
2008,07,18,13,27,17.00
2008,07,18,13,28,17.00
2008,07,18,13,29,17.20
2008,07,18,13,30,17.20
2008,07,18,13,31,17.30
2008,07,18,13,32,17.30
2008,07,18,13,33,17.30
2008,07,18,13,34,17.40
2008,07,18,13,35,17.40
2008,07,18,13,36,17.30
2008,07,18,13,37,17.20
2008,07,18,13,38,17.20
2008,07,18,13,39,17.20
2008,07,18,13,40,17.20
2008,07,18,13,41,17.20
2008,07,18,13,42,17.20
2008,07,18,13,43,17.20
2008,07,18,13,44,17.20
2008,07,18,13,45,17.30
2008,07,18,13,46,17.30
2008,07,18,13,47,17.40
2008,07,18,13,48,17.50
2008,07,18,13,49,17.50
2008,07,18,13,50,17.50
2008,07,18,13,51,17.50
2008,07,18,13,52,17.50
2008,07,18,13,53,17.50
2008,07,18,13,54,17.60
2008,07,18,13,55,17.70
2008,07,18,13,56,17.80
2008,07,18,13,57,17.90
2008,07,18,13,58,18.00
2008,07,18,13,59,18.10
2008,07,18,14,00,18.20
2008,07,18,14,01,18.30
2008,07,18,14,02,18.30
2008,07,18,14,03,18.30
2008,07,18,14,04,18.20
2008,07,18,14,05,18.10
2008,07,18,14,06,18.10
2008,07,18,14,07,18.20
2008,07,18,14,08,18.20
2008,07,18,14,09,18.20
2008,07,18,14,10,18.20
2008,07,18,14,11,18.20
2008,07,18,14,12,18.20
2008,07,18,14,13,18.30
2008,07,18,14,14,18.40
2008,07,18,14,15,18.40
2008,07,18,14,16,18.50
2008,07,18,14,17,18.60
2008,07,18,14,18,18.60
2008,07,18,14,19,18.70
2008,07,18,14,20,18.70
2008,07,18,14,21,18.80
2008,07,18,14,22,18.80
2008,07,18,14,23,18.80
2008,07,18,14,24,18.80
2008,07,18,14,25,18.80
2008,07,18,14,26,18.90
2008,07,18,14,27,18.80
2008,07,18,14,28,18.80
2008,07,18,14,29,18.80
2008,07,18,14,30,18.60
2008,07,18,14,31,18.60
2008,07,18,14,32,18.50
2008,07,18,14,33,18.60
2008,07,18,14,34,18.70
2008,07,18,14,35,18.70
2008,07,18,14,36,18.70
2008,07,18,14,37,18.70
2008,07,18,14,38,18.60
2008,07,18,14,39,18.50
2008,07,18,14,40,18.40
2008,07,18,14,41,18.40
2008,07,18,14,42,18.30
2008,07,18,14,43,18.30
2008,07,18,14,44,18.40
2008,07,18,14,45,18.40
2008,07,18,14,46,18.50
2008,07,18,14,47,18.40
2008,07,18,14,48,18.40
2008,07,18,14,49,18.30
2008,07,18,14,50,18.30
2008,07,18,14,51,18.30
2008,07,18,14,52,18.30
2008,07,18,14,53,18.30
2008,07,18,14,54,18.30
2008,07,18,14,55,18.30
2008,07,18,14,56,18.30
2008,07,18,14,57,18.30
2008,07,18,14,58,18.40
2008,07,18,14,59,18.40
2008,07,18,15,00,18.40
2008,07,18,15,01,18.50
2008,07,18,15,02,18.60
2008,07,18,15,03,18.70
2008,07,18,15,04,18.70
2008,07,18,15,05,18.70
2008,07,18,15,06,18.80
2008,07,18,15,07,18.80
2008,07,18,15,08,18.80
2008,07,18,15,09,18.80
2008,07,18,15,10,18.80
2008,07,18,15,11,18.90
2008,07,18,15,12,19.10
2008,07,18,15,13,19.10
2008,07,18,15,14,19.10
2008,07,18,15,15,19.00
2008,07,18,15,16,18.90
2008,07,18,15,17,18.90
2008,07,18,15,18,18.80
2008,07,18,15,19,18.70
2008,07,18,15,20,18.60
2008,07,18,15,21,18.50
2008,07,18,15,22,18.40
2008,07,18,15,23,18.40
2008,07,18,15,24,18.50
2008,07,18,15,25,18.50
2008,07,18,15,26,18.60
2008,07,18,15,27,18.60
2008,07,18,15,28,18.60
2008,07,18,15,29,18.60
2008,07,18,15,30,18.40
2008,07,18,15,31,18.40
2008,07,18,15,32,18.30
2008,07,18,15,33,18.30
2008,07,18,15,34,18.30
2008,07,18,15,35,18.20
2008,07,18,15,36,18.20
2008,07,18,15,37,18.30
2008,07,18,15,38,18.30
2008,07,18,15,39,18.40
2008,07,18,15,40,18.40
2008,07,18,15,41,18.40
2008,07,18,15,42,18.30
2008,07,18,15,43,18.30
2008,07,18,15,44,18.30
2008,07,18,15,45,18.20
2008,07,18,15,46,18.20
2008,07,18,15,47,18.20
2008,07,18,15,48,18.20
2008,07,18,15,49,18.20
2008,07,18,15,50,18.20
2008,07,18,15,51,18.30
2008,07,18,15,52,18.40
2008,07,18,15,53,18.40
2008,07,18,15,54,18.30
2008,07,18,15,55,18.30
2008,07,18,15,56,18.20
2008,07,18,15,57,18.20
2008,07,18,15,58,18.30
2008,07,18,15,59,18.50
2008,07,18,16,00,18.50
2008,07,18,16,01,18.60
2008,07,18,16,02,18.60
2008,07,18,16,03,18.50
2008,07,18,16,04,18.50
2008,07,18,16,05,18.50
2008,07,18,16,06,18.40
2008,07,18,16,07,18.40
2008,07,18,16,08,18.50
2008,07,18,16,09,18.50
2008,07,18,16,10,18.60
2008,07,18,16,11,18.60
2008,07,18,16,12,18.50
2008,07,18,16,13,18.50
2008,07,18,16,14,18.60
2008,07,18,16,15,18.60
2008,07,18,16,16,18.60
2008,07,18,16,17,18.60
2008,07,18,16,18,18.60
2008,07,18,16,19,18.60
2008,07,18,16,20,18.60
2008,07,18,16,21,18.50
2008,07,18,16,22,18.40
2008,07,18,16,23,18.40
2008,07,18,16,24,18.40
2008,07,18,16,25,18.50
2008,07,18,16,26,18.60
2008,07,18,16,27,18.60
2008,07,18,16,28,18.60
2008,07,18,16,29,18.70
2008,07,18,16,30,18.70
2008,07,18,16,31,18.70
2008,07,18,16,32,18.70
2008,07,18,16,33,18.70
2008,07,18,16,34,18.80
2008,07,18,16,35,18.90
2008,07,18,16,36,19.00
2008,07,18,16,37,19.10
2008,07,18,16,38,19.00
2008,07,18,16,39,19.10
2008,07,18,16,40,19.10
2008,07,18,16,41,19.10
2008,07,18,16,42,19.10
2008,07,18,16,43,19.10
2008,07,18,16,44,19.00
2008,07,18,16,45,19.00
2008,07,18,16,46,18.90
2008,07,18,16,47,18.80
2008,07,18,16,48,18.80
2008,07,18,16,49,18.80
2008,07,18,16,50,18.80
2008,07,18,16,51,18.80
2008,07,18,16,52,18.80
2008,07,18,16,53,18.90
2008,07,18,16,54,18.90
2008,07,18,16,55,18.90
2008,07,18,16,56,18.90
2008,07,18,16,57,19.00
2008,07,18,16,58,19.00
2008,07,18,16,59,19.10
2008,07,18,17,00,19.10
2008,07,18,17,01,19.10
2008,07,18,17,02,19.20
2008,07,18,17,03,19.20
2008,07,18,17,04,19.30
2008,07,18,17,05,19.40
2008,07,18,17,06,19.40
2008,07,18,17,07,19.50
2008,07,18,17,08,19.60
2008,07,18,17,09,19.50
2008,07,18,17,10,19.40
2008,07,18,17,11,19.40
2008,07,18,17,12,19.40
2008,07,18,17,13,19.30
2008,07,18,17,14,19.30
2008,07,18,17,15,19.20
2008,07,18,17,16,19.20
2008,07,18,17,17,19.20
2008,07,18,17,18,19.20
2008,07,18,17,19,19.30